DW7572 Weather Reports


Display with metric or nautical units.
time (UTC)temp
F
wind
direction
speed
MPH
gust
MPH
rain 1hr
in
rain 24hr
in
rain mn
in
humidity
%
barometer
mb
20260507023016 41 45 3.0 4.0 0.00 0.00 0.00 57 1015.3
20260507020017 42 45 4.0 7.0 0.00 0.00 0.00 54 1015.4
20260507013017 45 23 5.0 9.0 0.00 0.00 0.00 50 1015.5
20260507010016 48 23 8.0 12.0 0.00 0.00 0.00 46 1015.5
20260507003016 49 338 11.0 15.0 0.00 0.00 0.00 44 1015.5
20260507000017 50 315 13.0 22.0 0.00 0.00 0.00 43 1015.8
20260506233016 50 338 11.0 19.0 0.00 0.00 0.00 44 1015.9
20260506230037 49 0 11.0 20.0 0.00 0.00 0.00 45 1016.2
20260506223036 49 315 14.0 24.0 0.00 0.00 0.00 44 1016.4
20260506220016 49 315 12.0 26.0 0.00 0.00 0.00 46 1016.4
20260506213015 49 315 13.0 23.0 0.00 0.00 0.00 46 1016.6
20260506210018 48 315 12.0 23.0 0.00 0.00 0.00 46 1017.1
20260506203018 48 315 11.0 23.0 0.00 0.00 0.00 46 1017.2
20260506200017 47 315 11.0 23.0 0.00 0.00 0.00 48 1017.3
20260506193017 46 315 12.0 20.0 0.00 0.00 0.00 50 1017.6
20260506190019 46 315 13.0 23.0 0.00 0.00 0.00 51 1017.6
20260506183058 46 315 13.0 23.0 0.00 0.00 0.00 51 1017.8
20260506180018 44 315 10.0 19.0 0.00 0.00 0.00 52 1017.9
20260506173018 44 315 15.0 22.0 0.00 0.00 0.00 52 1017.9
20260506170018 44 315 14.0 22.0 0.00 0.00 0.00 54 1018.1
20260506163017 43 315 13.0 24.0 0.00 0.00 0.00 56 1018.1
20260506160058 42 315 10.0 19.0 0.00 0.00 0.00 60 1018.0
20260506153017 41 315 7.0 13.0 0.00 0.00 0.00 62 1017.9
20260506150017 40 338 7.0 12.0 0.00 0.00 0.00 62 1018.0
20260506143017 40 338 8.0 13.0 0.00 0.00 0.00 63 1017.8
20260506140018 40 315 10.0 14.0 0.00 0.00 0.00 65 1017.7
20260506133017 39 315 10.0 14.0 0.00 0.00 0.00 68 1017.7
20260506130016 38 293 7.0 11.0 0.00 0.00 0.00 70 1017.2
20260506123057 37 293 5.0 11.0 0.00 0.00 0.00 71 1017.0
20260506120037 36 293 2.0 7.0 0.00 0.00 0.00 75 1016.6
20260506113017 34 293 1.0 3.0 0.00 0.00 0.00 75 1016.1
20260506110016 33 293 1.0 3.0 0.00 0.00 0.00 74 1015.5
20260506103057 34 293 1.0 4.0 0.00 0.00 0.00 73 1015.6
20260506100016 34 293 2.0 5.0 0.00 0.00 0.00 72 1015.9
20260506093058 35 293 4.0 5.0 0.00 0.00 0.00 71 1015.4
20260506090016 35 293 4.0 5.0 0.00 0.00 0.00 71 1015.4
20260506083016 35 293 4.0 5.0 0.00 0.00 0.00 70 1015.4
20260506073016 36 315 3.0 5.0 0.00 0.00 0.00 67 1015.2
20260506043017 38 315 5.0 8.0 0.00 0.00 0.00 61 1014.7
20260506040017 40 338 7.0 10.0 0.00 0.00 0.00 58 1014.5
20260506033017 41 338 7.0 10.0 0.00 0.00 0.00 57 1014.2
20260506030037 42 338 8.0 15.0 0.00 0.00 0.00 54 1014.3